FW9143 Weather Reports


Display with metric or nautical units.
time (UTC)temp
F
wind
direction
speed
MPH
gust
MPH
rain 1hr
in
rain 24hr
in
rain mn
in
humidity
%
barometer
mb
20260502184016 70 284 8.0 14.0 0.00 0.00 0.00 45 1018.8
20260502182015 71 305 10.0 16.0 0.00 0.00 0.00 44 1018.9
20260502181015 69 290 7.0 16.0 0.00 0.00 0.00 47 1018.9
20260502164016 68 297 7.0 12.0 0.00 0.00 0.00 46 1019.7
20260502163036 68 292 8.0 15.0 0.00 0.00 0.00 47 1019.7
20260502162015 68 338 4.0 10.0 0.00 0.00 0.00 48 1019.7
20260502161016 67 282 3.0 11.0 0.00 0.00 0.00 52 1019.7
20260502152015 63 238 2.0 6.0 0.00 0.00 0.00 58 1020.0
20260502151036 62 215 3.0 7.0 0.00 0.00 0.00 60 1020.1
20260502123016 43 176 1.0 2.0 0.00 0.00 0.00 96 1019.4
20260502122015 42 276 1.0 2.0 0.00 0.00 0.00 96 1019.4
20260502121037 42 276 1.0 2.0 0.00 0.00 0.00 96 1019.2
20260502115016 42 276 0.0 1.0 0.00 0.00 0.00 96 1019.0
20260502114016 42 276 0.0 1.0 0.00 0.00 0.00 96 1018.7
20260502113015 41 0.0 0.0 0.00 0.00 0.00 96 1018.6
20260502112016 42 0.0 1.0 0.00 0.00 0.00 96 1018.5
20260502111016 42 0.0 0.0 0.00 0.00 0.00 96 1018.4
20260502110035 42 0.0 0.0 0.00 0.00 0.00 96 1018.3
20260502105018 42 276 0.0 2.0 0.00 0.00 0.00 96 1018.2
20260502104016 42 276 0.0 2.0 0.00 0.00 0.00 96 1018.2
20260502103015 42 0.0 0.0 0.00 0.00 0.00 96 1018.1
20260502102016 43 276 0.0 1.0 0.00 0.00 0.00 95 1018.1
20260502101015 43 276 1.0 2.0 0.00 0.00 0.00 96 1018.0
20260502091016 44 276 0.0 2.0 0.00 0.00 0.00 95 1017.8
20260502071015 48 182 0.0 1.0 0.00 0.00 0.00 93 1017.6
20260502070015 48 188 1.0 2.0 0.00 0.00 0.00 93 1017.4
20260502065015 48 279 2.0 3.0 0.00 0.00 0.00 93 1017.5
20260502064015 48 279 1.0 2.0 0.00 0.00 0.00 92 1017.7
20260502063015 49 277 2.0 3.0 0.00 0.00 0.00 92 1017.8
20260502062016 50 167 0.0 1.0 0.00 0.00 0.00 91 1017.7
20260502061016 50 0.0 1.0 0.00 0.00 0.00 91 1017.7
20260502060035 51 179 1.0 3.0 0.00 0.00 0.00 90 1017.8
20260502055015 51 282 0.0 2.0 0.00 0.00 0.00 89 1017.8
20260502054016 51 10 1.0 2.0 0.00 0.00 0.00 90 1017.9
20260502053015 51 60 1.0 4.0 0.00 0.00 0.00 90 1017.9
20260502052035 51 199 1.0 2.0 0.00 0.00 0.00 89 1017.8
20260502051015 52 223 0.0 2.0 0.00 0.00 0.00 88 1017.7
20260502050015 52 288 0.0 2.0 0.00 0.00 0.00 88 1017.7
20260502045015 52 288 1.0 2.0 0.00 0.00 0.00 88 1017.6
20260502044015 52 288 1.0 2.0 0.00 0.00 0.00 88 1017.6
20260502043017 52 285 1.0 2.0 0.00 0.00 0.00 87 1017.6
20260502042015 53 283 0.0 2.0 0.00 0.00 0.00 86 1017.6
20260502041015 53 0.0 1.0 0.00 0.00 0.00 84 1017.6
20260502040016 53 283 0.0 2.0 0.00 0.00 0.00 82 1017.5
20260502035016 54 283 0.0 2.0 0.00 0.00 0.00 81 1017.4
20260502034015 54 283 0.0 3.0 0.00 0.00 0.00 81 1017.4
20260502033015 54 281 0.0 2.0 0.00 0.00 0.00 78 1017.4
20260502032017 55 281 0.0 2.0 0.00 0.00 0.00 78 1017.4
20260502031015 56 281 1.0 1.0 0.00 0.00 0.00 74 1017.3
20260502030016 57 285 0.0 2.0 0.00 0.00 0.00 68 1017.3
20260502025035 57 294 2.0 3.0 0.00 0.00 0.00 69 1017.2
20260502024055 58 289 3.0 4.0 0.00 0.00 0.00 67 1017.1
20260502023015 58 313 1.0 2.0 0.00 0.00 0.00 66 1016.9
20260502022015 58 312 1.0 2.0 0.00 0.00 0.00 63 1016.8
20260502021015 59 330 1.0 2.0 0.00 0.00 0.00 63 1016.7
20260502020015 60 351 0.0 1.0 0.00 0.00 0.00 62 1016.7
20260502015015 61 0.0 0.0 0.00 0.00 0.00 60 1016.7
20260502014015 61 351 0.0 1.0 0.00 0.00 0.00 57 1016.5
20260502013015 62 0.0 1.0 0.00 0.00 0.00 55 1016.4
20260502012016 63 2 1.0 2.0 0.00 0.00 0.00 53 1016.2
20260502011115 64 31 1.0 3.0 0.00 0.00 0.00 48 1016.2
20260502010016 64 24 1.0 2.0 0.00 0.00 0.00 48 1016.2
20260502005015 65 22 2.0 3.0 0.00 0.00 0.00 46 1015.9
20260502004016 65 33 2.0 3.0 0.00 0.00 0.00 46 1015.7
20260502003015 66 38 1.0 3.0 0.00 0.00 0.00 45 1015.5
20260502002015 66 16 2.0 3.0 0.00 0.00 0.00 43 1015.3
20260502001015 67 353 2.0 6.0 0.00 0.00 0.00 42 1015.0
20260502000015 67 356 2.0 4.0 0.00 0.00 0.00 43 1014.6
20260501235116 68 1 3.0 7.0 0.00 0.00 0.00 41 1014.4
20260501234015 68 1 4.0 5.0 0.00 0.00 0.00 41 1014.4
20260501233015 69 359 3.0 6.0 0.00 0.00 0.00 41 1014.1
20260501232018 69 353 4.0 9.0 0.00 0.00 0.00 41 1013.9
20260501231041 70 3 3.0 8.0 0.00 0.00 0.00 42 1013.7
20260501230016 70 3 4.0 9.0 0.00 0.00 0.00 42 1013.7
20260501225020 70 11 3.0 7.0 0.00 0.00 0.00 44 1013.5
20260501224015 70 17 3.0 7.0 0.00 0.00 0.00 44 1013.5
20260501223015 70 36 5.0 12.0 0.00 0.00 0.00 42 1013.5
20260501222035 70 17 4.0 9.0 0.00 0.00 0.00 42 1013.8
20260501221018 71 7 3.0 8.0 0.00 0.00 0.00 43 1013.7
20260501220018 70 25 2.0 6.0 0.00 0.00 0.00 47 1013.6
20260501215018 70 350 3.0 5.0 0.00 0.00 0.00 45 1013.6
20260501214018 71 16 4.0 7.0 0.00 0.00 0.00 44 1013.4
20260501213018 70 26 2.0 4.0 0.00 0.00 0.00 44 1013.3
20260501212016 70 25 3.0 9.0 0.00 0.00 0.00 43 1013.6
20260501211018 71 339 4.0 10.0 0.00 0.00 0.00 43 1013.6
20260501210038 70 2 4.0 9.0 0.00 0.00 0.00 41 1013.7
20260501205018 70 1 3.0 5.0 0.00 0.00 0.00 43 1013.6
20260501204038 70 9 4.0 8.0 0.00 0.00 0.00 43 1013.7
20260501203018 71 338 5.0 11.0 0.00 0.00 0.00 40 1014.0
20260501202018 71 357 5.0 9.0 0.00 0.00 0.00 42 1014.1
20260501201018 71 44 3.0 10.0 0.00 0.00 0.00 43 1014.5
20260501200018 72 342 6.0 15.0 0.00 0.00 0.00 40 1014.7
20260501195016 72 10 6.0 12.0 0.00 0.00 0.00 39 1015.0
20260501194038 72 36 3.0 6.0 0.00 0.00 0.00 44 1015.2
20260501193018 71 294 2.0 8.0 0.00 0.00 0.00 44 1015.4
20260501192018 71 29 5.0 9.0 0.00 0.00 0.00 46 1015.5
20260501191018 71 46 3.0 10.0 0.00 0.00 0.00 46 1015.7
20260501190018 71 59 3.0 8.0 0.00 0.00 0.00 47 1016.1
20260501185018 70 345 3.0 10.0 0.00 0.00 0.00 46 1016.3